カタログに戻る

DELTA 1 DEB

運用中LEO
NORAD 10654·DEBRIS·🇺🇸 United States

打ち上げ Jul 29, 1976 から Vandenberg Space Force Base

Loading…

次のパス (今後24時間)

TLE

最新Source: Space-Track

元期: Sep 13, 2026, 20:46 UTC

1 10654U 76077Q   26256.86529719 -.00000365  00000-0 -10020-2 0  9992
2 10654 102.4904 224.1547 0199125  47.3237 341.7887 12.95513722354441

AllMySatでDELTA 1 DEBをリアルタイム追跡

Download on the App Store